Regional Weather Roundup
Issued by NWS

Home | Current Version | Previous Version | Text Only | Print | Product List | Glossary Off
Versions: 1 2 3 4 5 6 7 8 9 10 11 12 13 14 15 16 17 18 19 20 21 22 23 24 25 26 27 28 29 30 31 32 33 34 35 36 37 38 39 40 41 42 43 44 45 46 47 48 49 50

000
ASUS43 KBIS 221902
RWRND

NORTH DAKOTA REGIONAL WEATHER ROUNDUP
NATIONAL WEATHER SERVICE BISMARCK ND
200 PM CDT FRI JUL 22 2016

NOTE: "FAIR" INDICATES FEW OR NO CLOUDS BELOW 12,000 FEET WITH NO
SIGNIFICANT WEATHER AND/OR OBSTRUCTIONS TO VISIBILITY.


NDZ001>003-009>011-017-222000-
NORTHWEST NORTH DAKOTA

CITY           SKY/WX    TMP DP  RH WIND       PRES   REMARKS
WILLISTON      CLOUDY    91  56  30 SE17G25   30.00F
MINOT          CLOUDY    88  59  37 NE8       30.04F
MINOT AFB      CLOUDY    83  60  45 E12       30.04S
$$

NDZ018>021-031>035-040>046-222000-
SOUTHWEST NORTH DAKOTA

CITY           SKY/WX    TMP DP  RH WIND       PRES   REMARKS
BISMARCK       CLOUDY    87  74  64 E12       30.02R HX  95
DICKINSON      SUNNY     85  72  65 E17G26    30.01F HX  91
GARRISON         N/A     81  59  47 E10       30.07R
HETTINGER ARPT SUNNY     92  71  50 E16G23    30.02F HX  98
$$

NDZ004>008-012>016-024-026-027-054-222000-
NORTHEAST NORTH DAKOTA

CITY           SKY/WX    TMP DP  RH WIND       PRES   REMARKS
GRAND FORKS    MOSUNNY   85  63  47 NE8       30.01F
GRND FRKS AFB  SUNNY     85  62  46 NE7       30.03F
DEVILS LAKE    SUNNY     82  60  47 NE8       30.06F
$$

NDZ022-023-025-028>030-036>039-047>053-222000-
SOUTHEAST NORTH DAKOTA

CITY           SKY/WX    TMP DP  RH WIND       PRES   REMARKS
FARGO          SUNNY     91  67  44 NW6       30.01R HX  94
JAMESTOWN      CLOUDY    81  72  74 E8        30.02R
$$





USA.gov is the U.S. government's official web portal to all federal, state and local government web resources and services.